Regional Weather Roundup
Issued by NWS Jackson, KY

Home | Current Version | Previous Version | Text Only | Print | Product List | Glossary On
Versions: 1 2 3 4 5 6 7 8 9 10 11 12 13 14 15 16 17 18 19 20 21 22 23 24 25 26 27 28
000
ASUS43 KJKL 250410
RWRJKL

EAST KENTUCKY HOURLY WEATHER ROUNDUP
NATIONAL WEATHER SERVICE JACKSON KY
1200 AM EDT MON JUL 25 2016

NOTE: "FAIR" INDICATES FEW OR NO CLOUDS BELOW 12,000 FEET WITH
NO SIGNIFICANT WEATHER AND/OR OBSTRUCTIONS TO VISIBILITY.

* THESE REPORTS ARE NOT UNDER NWS QUALITY CONTROL AND MAY NOT
  REPORT WEATHER SUCH AS PRECIPITATION AND FOG.

KYZ079-080-083-085-087-088-110-112-115-119-120-250500
...EASTERN KENTUCKY...

CITY           SKY/WX    TMP DP  RH WIND       PRES   REMARKS
JACKSON        CLOUDY    81  75  82 CALM      30.05F
LONDON         CLOUDY    78  72  81 CALM      30.05F
SOMERSET*      CLEAR     75  75 100 CALM      30.04F
MONTICELLO*    CLEAR    N/A N/A N/A N9        30.05F
WILLIAMSBURG*  CLOUDY    75  75 100 CALM      30.05F
MIDDLESBORO*   PTCLDY    76  75  97 CALM      30.06F
HARLAN APT*      N/A     75  72  88 CALM      30.08F
PIKE CO APT*     N/A     78  76  92 CALM      30.06F
BIG SANDY APT* PTCLDY    82  76  82 CALM      30.04F
MOREHEAD APT*  CLOUDY    77  73  88 S5        30.04S
ASHLAND*       CLOUDY    79  75  89 CALM      29.97F
$$

KYZ035-036-041-042-044-050-067-078-099-250500
...CENTRAL KENTUCKY...

CITY           SKY/WX    TMP DP  RH WIND       PRES   REMARKS
MT STERLING*   CLEAR     75  73  94 S3        30.03F
FLEMING/MASON* CLEAR     78  73  84 S5        30.02S
DANVILLE*      CLOUDY    77  75  94 CALM      30.03F
RICHMOND*      CLOUDY    79  72  78 S3        30.02S
LEXINGTON      CLEAR     80  73  79 S5        30.01F
FRANKFORT      CLEAR     80  74  81 SW3       29.98F
LOUISVILLE     PTCLDY    85  75  72 S6        29.96F HX  93
LEBANON*         N/A     82  75  78 S5        30.01F
GLASGOW*       PTCLDY    79  76  90 CALM      30.00F
BOWLING GREEN  CLEAR     85  76  74 S3        29.99F HX  94
$$

KYZ091>093-OHZ055-061-077-WVZ005-015-034-035-042-250500
...SOUTHERN OHIO/WEST VIRGINIA...

CITY           SKY/WX    TMP DP  RH WIND       PRES   REMARKS
COVINGTON      PTCLDY    80  76  87 S5        29.98S
COLUMBUS       PTCLDY    80  73  79 SE3       29.97F
DAYTON         PTCLDY    82  74  76 SW9       29.98F
WILMINGTON     CLEAR     78  73  84 SW6       29.99S
HUNTINGTON       N/A     79  75  87 CALM      30.00F
CHARLESTON       N/A     77  74  90 CALM      30.02S
PINEVILLE*       N/A     74  70  88 MISG      30.13F FOG
BECKLEY          N/A     74  67  78 S6        30.14S
BLUEFIELD        N/A     75  63  66 CALM      30.17S
LOGAN CO APT*    N/A     79  73  83 CALM      30.06S
$$

VAZ002-007-008-TNZ017-027-036-066-071-250500
...SOUTHWEST VIRGINIA/EAST TENNESSEE...

CITY           SKY/WX    TMP DP  RH WIND       PRES   REMARKS
WISE*            N/A     75  61  60 CALM      30.16F
JONESVILLE*      N/A     77  73  88 CALM      30.09F
ABINGDON*        N/A     76  73  90 CALM      30.12F
BRISTOL        CLEAR     76  69  79 CALM      30.08F
MORRISTOWN*    CLEAR     81  72  74 CALM      30.05F
SEVIERVILLE*   CLEAR     75  70  83 CALM      30.05S
KNOXVILLE      PTCLDY    81  72  74 SW8       30.04S
OAK RIDGE      CLEAR     81  72  74 CALM      30.05F
CROSSVILLE     CLEAR     73  72  96 CALM      30.11F FOG
NASHVILLE      MOCLDY    82  72  71 S3        30.00F
$$

...KEY TO REMARKS...
VSB - VISIBILITY IN MILES
WCI - WIND CHILL INDEX
HX  - HEAT INDEX

$$




USA.gov is the U.S. government's official web portal to all federal, state and local government web resources and services.